Showing default

TIROS 9, 978

Orbit data source: Space-Track

TIROS 9, 978 is a payload satellite owned by GSFC (US) in SSO that was launched on Fri, 22 Jan 1965 UTC via a THOR DELTA C launch vehicle from the Air Force Eastern Test Range (AFETR). Payload-class satellites include a variety of spacecraft equipped with specific instruments for various scientific and technological missions. These include communications satellites like Starlink; space stations such as the ISS; scientific satellites like the Hubble; Earth observation satellites from companies like Planet Labs, Umbra, and HawkEye 360; GPS; miniature CubeSats for education and research; and military/defense satellites.

Loading next visibility...
Identifier
978, 1965-004A
Orbit
SSO
Country
Flag of USUS
Related business
Manufacturer
RCA/East Windsor
Mission
Non-operational spacecraft
Bus & Motor
TIROS I, Unknown motor
Mass
138 kg wet, 138 kg dry
Launch date (UTC)
1965-01-22 (61 years ago)
Launch vehicle
THOR DELTA C
Launch site
Air Force Eastern Test Range (AFETR)
Object type
Payload
Rocket body
Debris
Shape & HBR
Unknown
Radar Cross Section
Medium (>0.1 m² and <1 m²)

Expand to show TLE details & history
Last TLE update: 15 hours ago

TLE from 15 hours ago
0 TIROS 9
1 00978U 65004A   26106.75232068  .00000175  00000-0  23394-3 0  9994
2 00978  96.3965 286.5587 1158029 167.8002 195.3877 12.11142962704173
Epoch: 2026-04-16T18:03Z
TLE epoch observation values (Epoch: 2026-04-16T18:03:20.506Z)
Latitude
-0.0001°
Longitude
170.82791°
Altitude
2,534.981 km
Speed
6.301 km/s
True Right ascension
19h 06m 14s
True Declination
0° 00' 00"
Sunlit
Object was in daylight at epoch
Visualization orbit readout
Latitude
Unknown
Longitude
Unknown
Altitude
Unknown
Speed
Unknown
Apparent Right ascension
Unknown
Apparent Declination
Unknown
Sunlit
N/A
Visualization observer readout
Local Sidereal Time
15:53:27
Azimuth
Unknown
Elevation
Unknown
Doppler factor
Unknown
Orbital elements
Apogee altitude
2,555.868 km
Perigee altitude
701.448 km
Semi-major axis
8,006.795 km
Eccentricity
0.1158
Inclination
96.3965°
RAAN
286.5587°
Arg. of periapsis
167.8002°
True anomaly
192.30092°
Mean anomaly
195.3877°
Eccentric anomaly
193.80452°
Mean motion
3.02939 °/min
Orbital period
118.84 mins
BSTAR
0.00023394
Loading maneuver chart data...
Computing Atmospheric mass density...
Loading historical data...
Loading historical data...
Loading historical data...
Loading historical data...
Loading historical data...
Loading historical data...
Loading historical data...
Other satellites on launch #4 in the year 1965 (1965-01-22 UTC)

Documentation

Showing up to 5 results
|